G1SCQ Weather Reports


time (UTC)temp
C
wind
direction
speed
KPH
gust
KPH
rain 1hr
cm
rain 24hr
cm
rain mn
cm
humidity
%
barometer
mb
20260507141805 14 202 1.6 4.8 0.00 0.00 0.00 58 1015.9
20260507140905 14 211 1.6 4.8 0.00 0.00 0.00 59 1016.1
20260507140006 13 205 1.6 3.2 0.00 0.00 0.00 61 1016.1
20260507135405 13 306 0.0 3.2 0.00 0.00 0.00 61 1015.9
20260507134505 13 18 0.0 4.8 0.00 0.00 0.00 62 1016.1
20260507133605 13 6 1.6 6.4 0.00 0.00 0.00 66 1016.0
20260507132705 14 86 1.6 4.8 0.00 0.00 0.00 62 1016.1
20260507131805 15 65 1.6 6.4 0.00 0.00 0.00 66 1016.1
20260507130905 13 357 1.6 9.7 0.00 0.00 0.00 66 1016.2
20260507130005 15 40 1.6 3.2 0.00 0.00 0.00 66 1016.3
20260507125405 13 343 1.6 6.4 0.00 0.00 0.00 67 1016.2
20260507124505 13 344 1.6 9.7 0.00 0.00 0.00 71 1016.4
20260507123605 13 18 1.6 9.7 0.00 0.00 0.00 71 1016.2
20260507122706 13 16 1.6 6.4 0.00 0.00 0.00 69 1016.4
20260507121805 13 335 3.2 9.7 0.00 0.00 0.00 70 1016.4
20260507120904 12 336 3.2 9.7 0.00 0.00 0.00 73 1016.4
20260507120005 12 339 3.2 6.4 0.00 0.00 0.00 72 1016.6
20260507115405 12 332 3.2 11.3 0.00 0.00 0.00 72 1016.6
20260507114504 11 349 3.2 9.7 0.00 0.00 0.00 75 1016.7
20260507113605 11 336 3.2 9.7 0.00 0.00 0.00 75 1016.7
20260507112704 12 333 3.2 9.7 0.00 0.00 0.00 73 1016.6
20260507111804 12 349 3.2 9.7 0.00 0.00 0.00 70 1016.7
20260507110905 12 336 4.8 9.7 0.00 0.00 0.00 72 1016.8
20260507110005 12 334 3.2 6.4 0.00 0.00 0.00 72 1016.6
20260507105404 11 338 3.2 6.4 0.00 0.00 0.00 73 1017.1
20260507104505 11 337 3.2 11.3 0.00 0.00 0.00 73 1016.8
20260507103604 11 352 1.6 6.4 0.00 0.00 0.00 75 1017.0
20260507102705 10 344 3.2 9.7 0.00 0.00 0.00 75 1017.0
20260507101804 11 318 3.2 9.7 0.00 0.00 0.00 74 1017.0
20260507100905 11 308 3.2 6.4 0.00 0.00 0.00 72 1016.9
20260507100005 11 333 3.2 6.4 0.00 0.00 0.00 73 1016.9
20260507095404 10 322 3.2 6.4 0.00 0.00 0.00 75 1016.9
20260507094505 11 342 1.6 4.8 0.00 0.00 0.00 75 1016.8
20260507093604 10 321 1.6 6.4 0.00 0.00 0.00 75 1016.8
20260507092704 10 318 1.6 6.4 0.00 0.00 0.00 75 1016.9
20260507091804 11 295 3.2 9.7 0.00 0.00 0.00 74 1016.9
20260507090904 11 272 1.6 4.8 0.00 0.00 0.00 73 1016.8
20260507090005 10 267 0.0 3.2 0.00 0.00 0.00 74 1016.8
20260507085404 10 265 0.0 3.2 0.00 0.00 0.00 74 1017.0
20260507084504 10 216 1.6 3.2 0.00 0.00 0.00 75 1016.7
20260507083604 11 218 1.6 4.8 0.00 0.00 0.00 73 1016.8
20260507082705 11 213 1.6 4.8 0.00 0.00 0.00 72 1016.9
20260507081804 10 211 1.6 4.8 0.00 0.00 0.00 75 1016.9
20260507080904 10 189 0.0 3.2 0.00 0.00 0.00 75 1016.8
20260507080005 10 322 0.0 1.6 0.00 0.00 0.00 75 1016.8
20260507075405 10 181 0.0 1.6 0.00 0.00 0.00 77 1016.9
20260507074504 9 181 0.0 1.6 0.00 0.00 0.00 80 1016.3
20260507073604 9 187 0.0 4.8 0.00 0.00 0.00 80 1016.4
20260507072704 8 148 0.0 1.6 0.00 0.00 0.00 82 1016.3
20260507071804 8 115 0.0 3.2 0.00 0.00 0.00 82 1016.5
20260507070904 8 211 1.6 3.2 0.00 0.00 0.00 82 1016.4
20260507070008 8 203 1.6 4.8 0.00 0.00 0.00 84 1016.3
20260507065404 8 204 1.6 3.2 0.00 0.00 0.00 85 1016.5
20260507064504 7 192 1.6 4.8 0.00 0.00 0.00 87 1016.5
20260507063604 7 201 0.0 1.6 0.00 0.00 0.00 91 1016.3
20260507062704 6 215 1.6 6.4 0.00 0.00 0.00 97 1016.2
20260507061804 6 224 0.0 3.2 0.00 0.00 0.00 99 1016.5
20260507060904 5 0 0.0 0.0 0.00 0.00 0.00 99 1016.3
20260507060004 5 0 0.0 0.0 0.00 0.00 0.00 99 1016.4
20260507055404 5 0 0.0 0.0 0.00 0.00 0.00 99 1016.4
20260507054504 5 0 0.0 0.0 0.00 0.00 0.00 98 1016.0
20260507053604 5 0 0.0 0.0 0.00 0.00 0.00 99 1016.2
20260507052704 5 0 0.0 0.0 0.00 0.00 0.00 98 1016.2
20260507051804 4 0 0.0 0.0 0.00 0.00 0.00 99 1016.0
20260507050904 3 0 0.0 0.0 0.00 0.00 0.00 98 1016.0
20260507050005 3 0 0.0 0.0 0.00 0.00 0.00 98 1015.9
20260507045404 3 0 0.0 0.0 0.00 0.00 0.00 98 1015.9
20260507044504 3 0 0.0 0.0 0.00 0.00 0.00 98 1015.9
20260507043604 3 0 0.0 0.0 0.00 0.00 0.00 98 1015.9
20260507042704 3 0 0.0 0.0 0.00 0.00 0.00 98 1015.9
20260507041804 4 0 0.0 0.0 0.00 0.00 0.00 98 1015.9
20260507040904 4 0 0.0 0.0 0.00 0.00 0.00 98 1015.8
20260507040004 4 0 0.0 0.0 0.00 0.00 0.00 97 1015.7
20260507035404 4 0 0.0 0.0 0.00 0.00 0.00 97 1015.6
20260507034504 4 0 0.0 0.0 0.00 0.00 0.00 97 1015.7
20260507033604 5 0 0.0 0.0 0.00 0.00 0.00 97 1015.6
20260507032704 5 0 0.0 0.0 0.00 0.00 0.00 97 1015.6
20260507031803 5 0 0.0 0.0 0.00 0.00 0.00 97 1015.6
20260507030904 5 0 0.0 0.0 0.00 0.00 0.00 96 1015.6
20260507030004 5 0 0.0 0.0 0.00 0.00 0.00 96 1015.6
20260507025404 5 0 0.0 0.0 0.00 0.00 0.00 96 1015.7
20260507024503 5 0 0.0 0.0 0.00 0.00 0.00 95 1015.6
20260507023603 5 316 0.0 1.6 0.00 0.00 0.00 95 1015.6
20260507022704 5 0 0.0 0.0 0.00 0.00 0.00 94 1015.5
20260507021803 5 0 0.0 0.0 0.00 0.00 0.00 93 1015.3
20260507020904 5 0 0.0 0.0 0.00 0.00 0.00 93 1015.5
20260507020003 5 0 0.0 0.0 0.00 0.00 0.00 93 1015.3
20260507015403 6 0 0.0 0.0 0.00 0.00 0.00 93 1015.5
20260507014503 6 0 0.0 0.0 0.00 0.00 0.00 93 1015.3
20260507013604 6 0 0.0 0.0 0.00 0.00 0.00 92 1015.6
20260507012703 6 0 0.0 0.0 0.00 0.00 0.00 92 1015.3
20260507011803 6 0 0.0 0.0 0.00 0.00 0.00 92 1015.5
20260507010903 6 0 0.0 0.0 0.00 0.00 0.00 91 1015.5
20260507010003 6 0 0.0 0.0 0.00 0.00 0.00 91 1015.3
20260507005403 6 0 0.0 0.0 0.00 0.00 0.00 91 1015.5
20260507004503 7 0 0.0 0.0 0.00 0.00 0.00 91 1015.5
20260507003604 7 0 0.0 0.0 0.00 0.00 0.00 90 1015.5
20260507002703 7 0 0.0 0.0 0.00 0.00 0.00 90 1015.7
20260507001803 7 0 0.0 0.0 0.00 0.00 0.00 90 1015.7
20260507000903 7 0 0.0 0.0 0.00 0.00 0.00 90 1015.5
20260507000004 7 0 0.0 0.0 0.00 0.00 0.00 90 1015.7
20260506235403 7 0 0.0 0.0 0.00 0.00 0.00 90 1015.7
20260506234503 7 0 0.0 0.0 0.00 0.00 0.00 90 1015.7
20260506233604 7 0 0.0 0.0 0.00 0.00 0.00 90 1015.7
20260506232703 7 0 0.0 0.0 0.00 0.00 0.00 89 1015.8
20260506231803 7 0 0.0 0.0 0.00 0.00 0.00 89 1015.5
20260506230903 7 0 0.0 0.0 0.00 0.00 0.00 89 1015.7
20260506230004 7 1 0.0 1.6 0.00 0.00 0.00 88 1015.6
20260506225403 7 1 0.0 1.6 0.00 0.00 0.00 89 1015.5
20260506224503 7 0 0.0 0.0 0.00 0.00 0.00 89 1015.8
20260506223603 7 3 0.0 1.6 0.00 0.00 0.00 88 1015.7
20260506222703 7 48 0.0 1.6 0.00 0.00 0.00 88 1015.6
20260506221803 7 44 0.0 1.6 0.00 0.00 0.00 88 1015.6
20260506220903 7 20 0.0 1.6 0.00 0.00 0.00 88 1015.6
20260506220003 7 0 0.0 0.0 0.00 0.00 0.00 88 1015.6
20260506215403 7 0 0.0 0.0 0.00 0.00 0.00 89 1015.7
20260506214503 7 25 0.0 1.6 0.00 0.00 0.00 89 1015.7
20260506213603 7 29 0.0 1.6 0.00 0.00 0.00 89 1015.6
20260506212703 7 56 0.0 1.6 0.00 0.00 0.00 88 1015.6
20260506211805 7 18 0.0 1.6 0.00 0.00 0.00 89 1015.6
20260506210906 7 59 0.0 1.6 0.00 0.00 0.00 89 1015.5
20260506210006 7 40 0.0 3.2 0.00 0.00 0.00 90 1015.1
20260506205406 7 35 0.0 3.2 0.00 0.00 0.00 90 1015.2
20260506204506 7 56 0.0 3.2 0.00 0.00 0.00 90 1015.0
20260506203606 6 62 0.0 3.2 0.00 0.00 0.00 92 1015.2
20260506202706 7 88 0.0 1.6 0.00 0.00 0.00 92 1015.1
20260506201805 6 34 0.0 4.8 0.00 0.00 0.00 94 1015.3
20260506200905 6 51 0.0 1.6 0.00 0.00 0.00 94 1015.0
20260506200005 6 17 0.0 1.6 0.00 0.00 0.00 94 1014.9
20260506195405 6 354 0.0 1.6 0.00 0.00 0.00 94 1014.9
20260506194505 6 54 0.0 6.4 0.00 0.00 0.00 94 1015.0
20260506193605 6 9 0.0 6.4 0.00 0.00 0.00 95 1014.7
20260506192706 6 53 1.6 9.7 0.00 0.00 0.00 95 1014.7
20260506191806 6 72 1.6 3.2 0.00 0.00 0.00 95 1014.8
20260506190906 6 57 1.6 9.7 0.00 0.00 0.00 95 1014.6
20260506190006 6 79 1.6 6.4 0.00 0.00 0.00 96 1014.5
20260506185405 6 77 0.0 6.4 0.00 0.00 0.00 96 1014.6
20260506184505 6 63 1.6 4.8 0.00 0.00 0.00 96 1014.6
20260506183605 6 63 0.0 3.2 0.00 0.00 0.00 96 1014.5
20260506182705 6 72 1.6 4.8 0.00 0.00 0.00 96 1014.5
20260506181805 6 86 1.6 16.1 0.00 0.00 0.00 96 1014.4
20260506180905 6 83 1.6 16.1 0.00 0.00 0.00 96 1014.4
20260506180006 7 65 0.0 11.3 0.00 0.00 0.00 96 1014.2
20260506175405 7 87 0.0 4.8 0.00 0.00 0.00 96 1014.0
20260506174505 6 69 0.0 6.4 0.00 0.00 0.00 97 1014.0
20260506173605 7 82 1.6 6.4 0.00 0.00 0.00 96 1013.9
20260506172705 7 84 1.6 9.7 0.00 0.00 0.00 97 1013.8
20260506171805 7 42 1.6 4.8 0.00 0.00 0.00 97 1013.8
20260506170905 7 25 0.0 6.4 0.00 0.00 0.00 97 1014.0
20260506170005 7 64 0.0 6.4 0.00 0.00 0.00 96 1013.9
20260506165405 7 75 0.0 3.2 0.00 0.00 0.00 95 1013.9
20260506164505 7 130 0.0 4.8 0.00 0.00 0.00 95 1013.9
20260506163605 7 60 1.6 11.3 0.00 0.00 0.00 95 1013.8
20260506162705 7 79 1.6 4.8 0.00 0.00 0.00 94 1013.8
20260506161805 8 79 1.6 4.8 0.00 0.00 0.00 94 1013.6
20260506160905 8 83 1.6 4.8 0.00 0.00 0.00 93 1013.6
20260506160005 8 56 1.6 9.7 0.00 0.00 0.00 92 1013.7
20260506155405 8 54 1.6 12.9 0.00 0.00 0.00 92 1013.8
20260506154505 8 33 1.6 9.7 0.00 0.00 0.00 91 1013.8
20260506153605 8 39 1.6 11.3 0.00 0.00 0.00 92 1013.8
20260506152705 8 58 1.6 9.7 0.00 0.00 0.00 91 1013.8
20260506151805 8 75 1.6 11.3 0.00 0.00 0.00 91 1013.6
20260506150905 8 85 1.6 12.9 0.00 0.00 0.00 92 1013.6
20260506150005 8 53 1.6 6.4 0.00 0.00 0.00 91 1013.7
20260506145405 8 83 1.6 3.2 0.00 0.00 0.00 91 1013.6
20260506144505 8 53 1.6 9.7 0.00 0.00 0.00 91 1013.6
20260506143605 9 68 1.6 6.4 0.00 0.00 0.00 90 1013.6
20260506142705 9 50 1.6 4.8 0.00 0.00 0.00 90 1013.4